• In Moldova, Republic
  • List of Countries
  • For 7 days
  • Water Temperature
  • Satellite Maps
  • Weather Map
  • Weather Widgets
  • user-avatar
    Login

    Hourly Weather Dzialy

    Today, 19 October, Friday

    Time Temperature Precipitation Wind Pressure Humidity
    00:00 +13°C° 0 mm 1 mps 750 mmHg 77%
    01:00 +13°C° 0 mm 1 mps 750 mmHg 78%
    02:00 +12°C° 0 mm 1 mps 751 mmHg 79%
    03:00 +12°C° 0 mm 2 mps 751 mmHg 80%
    04:00 +12°C° 0 mm 2 mps 751 mmHg 81%
    05:00 +10°C° 0 mm 2 mps 751 mmHg 82%
    06:00 +10°C° 0 mm 2 mps 751 mmHg 82%
    07:00 +10°C° 0 mm 2 mps 751 mmHg 81%
    08:00 +10°C° 0 mm 2 mps 751 mmHg 81%
    09:00 +13°C° 0 mm 2 mps 751 mmHg 74%
    10:00 +15°C° 0 mm 2 mps 752 mmHg 66%
    11:00 +17°C° 0 mm 2 mps 752 mmHg 59%
    12:00 +18°C° 0 mm 2 mps 752 mmHg 56%
    13:00 +18°C° 0 mm 3 mps 752 mmHg 53%
    14:00 +19°C° 0 mm 3 mps 752 mmHg 50%
    15:00 +18°C° 0 mm 3 mps 752 mmHg 54%
    16:00 +17°C° 0 mm 2 mps 752 mmHg 58%
    17:00 +17°C° 0 mm 2 mps 752 mmHg 62%
    18:00 +15°C° 0 mm 2 mps 752 mmHg 67%
    19:00 +14°C° 0 mm 2 mps 752 mmHg 71%
    20:00 +13°C° 0 mm 2 mps 753 mmHg 76%
    21:00 +13°C° 0 mm 2 mps 753 mmHg 80%
    22:00 +12°C° 0 mm 2 mps 753 mmHg 83%
    23:00 +12°C° 0 mm 2 mps 753 mmHg 87%

    Tomorrow, 20 October, Saturday

    Time Temperature Precipitation Wind Pressure Humidity
    00:00 +10°C° 0 mm 2 mps 753 mmHg 89%
    01:00 +10°C° 0 mm 2 mps 754 mmHg 92%
    02:00 +9°C° 0 mm 2 mps 754 mmHg 94%
    03:00 +9°C° 0 mm 2 mps 754 mmHg 95%
    04:00 +9°C° 0 mm 2 mps 754 mmHg 95%
    05:00 +9°C° 0 mm 1 mps 754 mmHg 96%
    06:00 +8°C° 0 mm 2 mps 754 mmHg 96%
    07:00 +8°C° 0 mm 2 mps 754 mmHg 96%
    08:00 +8°C° 0 mm 2 mps 754 mmHg 95%
    09:00 +9°C° 0 mm 2 mps 755 mmHg 87%
    10:00 +12°C° 0 mm 2 mps 755 mmHg 79%
    11:00 +13°C° 0 mm 2 mps 755 mmHg 71%
    12:00 +13°C° 0 mm 3 mps 755 mmHg 65%
    13:00 +13°C° 0 mm 3 mps 755 mmHg 58%
    14:00 +14°C° 0 mm 3 mps 754 mmHg 52%
    15:00 +13°C° 0 mm 3 mps 754 mmHg 53%
    16:00 +12°C° 0 mm 3 mps 754 mmHg 55%
    17:00 +12°C° 0 mm 2 mps 754 mmHg 57%
    18:00 +12°C° 0 mm 2 mps 754 mmHg 59%
    19:00 +10°C° 0 mm 2 mps 754 mmHg 60%
    20:00 +10°C° 0 mm 2 mps 754 mmHg 62%
    21:00 +10°C° 0 mm 2 mps 754 mmHg 63%
    22:00 +9°C° 0 mm 2 mps 754 mmHg 65%
    23:00 +9°C° 0 mm 2 mps 754 mmHg 66%

    Day after tomorrow, 21 October, Sunday

    Time Temperature Precipitation Wind Pressure Humidity
    00:00 +9°C° 0.1 mm 2 mps 754 mmHg 67%
    01:00 +9°C° 0.1 mm 2 mps 754 mmHg 69%
    02:00 +9°C° 0.1 mm 2 mps 754 mmHg 71%
    03:00 +8°C° 0.1 mm 2 mps 754 mmHg 74%
    04:00 +8°C° 0.1 mm 2 mps 754 mmHg 77%
    05:00 +8°C° 0.1 mm 2 mps 754 mmHg 81%
    06:00 +7°C° 0.1 mm 2 mps 754 mmHg 83%
    07:00 +7°C° 0.1 mm 2 mps 754 mmHg 84%
    08:00 +7°C° 0.1 mm 2 mps 754 mmHg 86%
    09:00 +8°C° 0.1 mm 2 mps 754 mmHg 80%
    10:00 +9°C° 0.1 mm 2 mps 755 mmHg 73%
    11:00 +10°C° 0.1 mm 3 mps 755 mmHg 67%
    12:00 +11°C° 0 mm 3 mps 755 mmHg 62%
    13:00 +11°C° 0 mm 3 mps 755 mmHg 58%
    14:00 +12°C° 0 mm 3 mps 755 mmHg 54%
    15:00 +11°C° 0 mm 3 mps 755 mmHg 57%
    16:00 +10°C° 0 mm 2 mps 755 mmHg 59%
    17:00 +9°C° 0 mm 2 mps 755 mmHg 62%
    18:00 +9°C° 0 mm 2 mps 755 mmHg 64%
    19:00 +9°C° 0 mm 1 mps 756 mmHg 67%
    20:00 +8°C° 0 mm 1 mps 756 mmHg 70%
    21:00 +8°C° 0 mm 1 mps 756 mmHg 72%
    22:00 +7°C° 0 mm 1 mps 756 mmHg 74%
    23:00 +7°C° 0 mm 1 mps 756 mmHg 76%

    22 October, Monday

    Time Temperature Precipitation Wind Pressure Humidity
    00:00 +6°C° 0 mm 1 mps 756 mmHg 78%
    01:00 +5°C° 0 mm 0 mps 756 mmHg 80%
    02:00 +5°C° 0 mm 0 mps 756 mmHg 82%
    03:00 +5°C° 0 mm 0 mps 756 mmHg 83%
    04:00 +4°C° 0 mm 0 mps 756 mmHg 84%
    05:00 +4°C° 0 mm 0 mps 755 mmHg 85%
    06:00 +4°C° 0 mm 0 mps 756 mmHg 85%
    07:00 +4°C° 0 mm 0 mps 756 mmHg 84%
    08:00 +4°C° 0 mm 0 mps 756 mmHg 83%
    09:00 +7°C° 0 mm 1 mps 756 mmHg 76%
    10:00 +9°C° 0 mm 1 mps 755 mmHg 68%
    11:00 +10°C° 0 mm 1 mps 755 mmHg 61%
    12:00 +10°C° 0 mm 2 mps 755 mmHg 58%
    13:00 +12°C° 0 mm 2 mps 754 mmHg 54%
    14:00 +12°C° 0 mm 2 mps 753 mmHg 51%
    15:00 +12°C° 0 mm 2 mps 753 mmHg 54%
    16:00 +10°C° 0 mm 2 mps 753 mmHg 58%
    17:00 +9°C° 0 mm 2 mps 752 mmHg 61%
    18:00 +9°C° 0 mm 2 mps 752 mmHg 65%
    19:00 +8°C° 0 mm 2 mps 752 mmHg 68%
    20:00 +7°C° 0 mm 2 mps 752 mmHg 72%
    21:00 +7°C° 0 mm 2 mps 751 mmHg 75%
    22:00 +6°C° 0 mm 2 mps 751 mmHg 78%
    23:00 +6°C° 0 mm 2 mps 751 mmHg 82%

    23 October, Tuesday

    Time Temperature Precipitation Wind Pressure Humidity
    00:00 +5°C° 0.2 mm 3 mps 751 mmHg 84%
    01:00 +5°C° 0.2 mm 3 mps 751 mmHg 86%
    02:00 +7°C° 0.2 mm 3 mps 750 mmHg 88%
    03:00 +7°C° 0.2 mm 3 mps 750 mmHg 87%
    04:00 +7°C° 0.2 mm 3 mps 750 mmHg 87%
    05:00 +6°C° 0.2 mm 4 mps 750 mmHg 86%
    06:00 +5°C° 0 mm 4 mps 750 mmHg 86%
    07:00 +5°C° 0 mm 3 mps 750 mmHg 85%
    08:00 +5°C° 0 mm 3 mps 750 mmHg 84%
    09:00 +6°C° 0 mm 4 mps 750 mmHg 78%
    10:00 +7°C° 0 mm 4 mps 750 mmHg 72%
    11:00 +8°C° 0 mm 4 mps 750 mmHg 65%
    12:00 +8°C° 0 mm 4 mps 750 mmHg 62%
    13:00 +10°C° 0 mm 4 mps 749 mmHg 60%
    14:00 +10°C° 0 mm 4 mps 749 mmHg 57%
    15:00 +10°C° 0 mm 4 mps 749 mmHg 59%
    16:00 +8°C° 0 mm 4 mps 749 mmHg 61%
    17:00 +8°C° 0 mm 4 mps 749 mmHg 63%
    18:00 +7°C° 0 mm 4 mps 748 mmHg 65%
    19:00 +7°C° 0 mm 4 mps 748 mmHg 67%
    20:00 +6°C° 0 mm 4 mps 748 mmHg 69%
    21:00 +6°C° 0 mm 4 mps 748 mmHg 72%
    22:00 +6°C° 0 mm 5 mps 748 mmHg 74%
    23:00 +6°C° 0 mm 5 mps 747 mmHg 77%

    24 October, Wednesday

    Time Temperature Precipitation Wind Pressure Humidity
    00:00 +5°C° 0 mm 5 mps 747 mmHg 81%
    01:00 +5°C° 0 mm 4 mps 746 mmHg 85%
    02:00 +4°C° 0 mm 4 mps 746 mmHg 89%
    03:00 +5°C° 0 mm 4 mps 745 mmHg 88%
    04:00 +5°C° 0 mm 5 mps 744 mmHg 87%
    05:00 +5°C° 0 mm 5 mps 743 mmHg 85%
    06:00 +5°C° 0.4 mm 6 mps 742 mmHg 84%
    07:00 +5°C° 0.4 mm 8 mps 741 mmHg 84%
    08:00 +5°C° 0.4 mm 9 mps 739 mmHg 83%
    09:00 +6°C° 1.1 mm 9 mps 738 mmHg 84%
    10:00 +7°C° 1.1 mm 9 mps 737 mmHg 85%
    11:00 +7°C° 1.1 mm 10 mps 736 mmHg 86%
    12:00 +8°C° 0.6 mm 9 mps 735 mmHg 84%
    13:00 +10°C° 0.6 mm 9 mps 735 mmHg 83%
    14:00 +11°C° 0.6 mm 9 mps 734 mmHg 82%
    15:00 +10°C° 0.2 mm 8 mps 734 mmHg 79%
    16:00 +10°C° 0.2 mm 7 mps 734 mmHg 77%
    17:00 +9°C° 0.2 mm 6 mps 735 mmHg 74%
    18:00 +8°C° 0.1 mm 7 mps 735 mmHg 71%
    19:00 +8°C° 0.1 mm 7 mps 735 mmHg 68%
    20:00 +6°C° 0.1 mm 7 mps 736 mmHg 65%
    21:00 +6°C° 0 mm 7 mps 736 mmHg 64%
    22:00 +6°C° 0 mm 8 mps 736 mmHg 63%
    23:00 +5°C° 0 mm 8 mps 736 mmHg 62%
    Show more